sat.trackr.live / text

‹ back to catalog

PAKSAT-1R

NORAD 37779 · 2011-042A

PAYLOAD ACTIVE UNKNOWN

§ Identity

Operator
Country
PAKI
Launch date
2011-08-11
Launch site
XICLF
Launch vehicle
Mass (kg)
RCS (m²)
14.69

Purposes: comms

External: N2YO · Heavens-Above · Gunter

§ Orbital elements

Epoch: 2026-08-29T02:39:03.108096Z

Period
1,449.04 min
Inclination
0.8695°
Eccentricity
0.0000252
Mean motion
0.99375980 rev/d
Perigee alt
36,038.5 km
Apogee alt
36,040.7 km
Semi-major
42,417.7 km
B*
0.0000e+0
RAAN
83.5318°
Arg perigee
133.6176°
Mean anomaly
165.8142°
Rev number
5,520

§ Raw data

PAKSAT-1R1 37779U 11042A   26241.11045264 -.00000106  00000+0  00000+0 0  99952 37779   0.8695  83.5318 0000252 133.6176 165.8142  0.99375980 55206

JSON: /api/v1/satellites/37779 · /tle

For live sub-satellite position, see the globe view (requires WebGL).

§ Visibility from observer

Set your observer location to see the next 7 days of passes ≥ 10°. The values pass through the URL so the page stays shareable.

No JS? Fill the form by hand. The geolocation button needs JavaScript.